Tracking 26257 objects as of 4-Oct-2022
HD Live streaming from Space Station
objects crossing your sky now

BNU-1

Track BNU-1 now!
10-day predictions


NORAD ID: 44529
Int'l Code: 2019-059B
Perigee: 737.3 km
Apogee: 758.3 km
Inclination: 98.5 °
Period: 99.6 minutes
Semi major axis: 7118 km
RCS: Unknown
Launch date: September 12, 2019
Source: People's Republic of China (PRC)
Launch site: Taiyaun Space Center, China (TSC)
aabbcc
Your satellite tracking list
Your tracking list is empty




NASA's NSSDC Master Catalog

Two Line Element Set (TLE):
1 44529U 19059B   22276.77428496  .00000489  00000-0  15159-3 0  9999
2 44529  98.5213  12.2501 0014792 140.1799 220.0475 14.45413860161429
Source of the keplerian elements: AFSPC